Regional Weather Roundup
Issued by NWS

Home | Current Version | Previous Version | Graphics & Text | Print | Product List | Glossary Off
Versions: 1 2 3 4 5 6 7 8 9 10 11 12 13 14 15 16 17 18 19 20 21 22 23 24 25 26 27 28 29 30 31 32 33 34 35 36 37 38 39 40 41 42 43 44 45 46 47 48 49 50

925
ASUS43 KMKX 211221
RWRWI

WISCONSIN REGIONAL WEATHER ROUNDUP
NATIONAL WEATHER SERVICE MILWAUKEE/SULLIVAN WI
700 AM CDT FRI JUL 21 2017

NOTE: "FAIR" INDICATES FEW OR NO CLOUDS BELOW 12,000 FEET WITH NO
SIGNIFICANT WEATHER AND/OR OBSTRUCTIONS TO VISIBILITY.

WIZ001-002-006>008-014>016-023>028-211300-
NORTHWEST WISCONSIN

CITY           SKY/WX    TMP DP  RH WIND       PRES   REMARKS
SUPERIOR ARPT  NOT AVBL
ASHLAND        CLOUDY    63  61  93 NW3       29.95R
6HR MIN TEMP:  57; 6HR MAX TEMP:  66;

HAYWARD        CLOUDY    61  59  93 CALM      29.95F
6HR MIN TEMP:  57; 6HR MAX TEMP:  62;

SIREN          CLOUDY    65  64  95 CALM      29.93F
6HR MIN TEMP:  63; 6HR MAX TEMP:  67;

CUMBERLAND     SUNNY     63  63 100 CALM      29.95S FOG
RICE LAKE        N/A     64  63  97 CALM      29.97S FOG
6HR MIN TEMP:  61; 6HR MAX TEMP:  64;

CHETEK         SUNNY     64  64 100 NE3       29.95S FOG
6HR MIN TEMP:  60; 6HR MAX TEMP:  64;

LADYSMITH      MOSUNNY   63  62  97 CALM      29.98F FOG
6HR MIN TEMP:  60; 6HR MAX TEMP:  65;

EAU CLAIRE     MOSUNNY   65  64  97 NE3       29.93S FOG
6HR MIN TEMP:  61; 6HR MAX TEMP:  65;

MENOMONIE      FOG       65  65  99 CALM      29.95R VSB 1/4
6HR MIN TEMP:  63; 6HR MAX TEMP:  67;

NEW RICHMOND   SUNNY     66  65  99 E3        29.93R FOG
6HR MIN TEMP:  64; 6HR MAX TEMP:  67;

OSCEOLA        SUNNY     66  66 100 E5        29.94F FOG
6HR MIN TEMP:  63; 6HR MAX TEMP:  67;

$$

WIZ003>005-009-010-017-018-211300-
NORTH CENTRAL WISCONSIN

CITY           SKY/WX    TMP DP  RH WIND       PRES   REMARKS
MANITOWISH WTR SUNNY     65  65 100 CALM      29.97S
6HR MIN TEMP:  54; 6HR MAX TEMP:  60;

ARBOR VITAE    SUNNY     62  61  96 S6        29.98S
6HR MIN TEMP:  59; 6HR MAX TEMP:  63;

WOODRUFF       SUNNY     62  61  96 S6        29.98S
6HR MIN TEMP:  59; 6HR MAX TEMP:  63;

RHINELANDER    SUNNY     64  63  96 CALM      30.00F
6HR MIN TEMP:  56; 6HR MAX TEMP:  64;

EAGLE RIVER    SUNNY     60  60 100 S3        29.98F FOG
6HR MIN TEMP:  55; 6HR MAX TEMP:  60;

LAND O LAKES   SUNNY     61  61 100 CALM      30.00S
6HR MIN TEMP:  53; 6HR MAX TEMP:  58;

PHILLIPS       SUNNY     64  64  97 CALM      29.97F
6HR MIN TEMP:  58; 6HR MAX TEMP:  62;

TOMAHAWK         N/A     61  60  97 CALM      29.99F
6HR MIN TEMP:  53; 6HR MAX TEMP:  61;

MEDFORD        PTSUNNY   63  63  99 CALM      29.98F FOG
6HR MIN TEMP:  57; 6HR MAX TEMP:  64;

MERRILL        PTSUNNY   61  61 100 CALM      29.99F
6HR MIN TEMP:  54; 6HR MAX TEMP:  61;

$$

WIZ029-030-035-036-043>047-211300-
CENTRAL WISCONSIN

CITY           SKY/WX    TMP DP  RH WIND       PRES   REMARKS
WAUSAU         MOSUNNY   65  64  97 E6        29.97F FOG
6HR MIN TEMP:  62; 6HR MAX TEMP:  68;

MOSINEE        FOG       63  63 100 CALM      29.98F VSB 1/4
MARSHFIELD     MOSUNNY   64  62  93 CALM      29.96F FOG
6HR MIN TEMP:  59; 6HR MAX TEMP:  66;

STEVENS POINT  CLOUDY    61  61 100 NE5       29.98F FOG
6HR MIN TEMP:  56; 6HR MAX TEMP:  62;

WAUPACA        MOSUNNY   66  65  98 CALM      29.98F FOG
6HR MIN TEMP:  64; 6HR MAX TEMP:  67;

WAUTOMA        CLOUDY    65  64  97 CALM      29.98F
6HR MIN TEMP:  62; 6HR MAX TEMP:  66;

WISC RAPIDS    CLOUDY    65  64  97 SE5       29.97F FOG
6HR MIN TEMP:  61; 6HR MAX TEMP:  65;

CAMP DOUGLAS   FOG       64  64 100 SE3       29.95F VSB 1/2
$$

WIZ011>013-019>022-031-037>040-048>050-211300-
NORTHEAST WISCONSIN

CITY           SKY/WX    TMP DP  RH WIND       PRES   REMARKS
ANTIGO         SUNNY     64  62  96 CALM      30.01F
6HR MIN TEMP:  55; 6HR MAX TEMP:  61;

SHAWANO        MOSUNNY   67  64  89 CALM      29.97F
6HR MIN TEMP:  62; 6HR MAX TEMP:  68;

OCONTO         CLOUDY    64  63  96 CALM      29.98S
6HR MIN TEMP:  58; 6HR MAX TEMP:  64;

STURGEON BAY     N/A     67  65  93 CALM      29.99F
6HR MIN TEMP:  62; 6HR MAX TEMP:  70;

GREEN BAY      MOSUNNY   66  66 100 CALM      29.98F FOG
6HR MIN TEMP:  63; 6HR MAX TEMP:  68;

MANITOWOC      MOSUNNY   69  65  86 CALM      29.99F
6HR MIN TEMP:  66; 6HR MAX TEMP:  70;

APPLETON       PTSUNNY   66  66 100 CALM      29.97F
CLINTONVILLE   CLOUDY    64  63  94 CALM      29.98S
OSHKOSH        CLOUDY    68  66  93 S3        29.98F FOG
6HR MIN TEMP:  66; 6HR MAX TEMP:  70;

$$

WIZ032>034-041-042-053>061-211300-
SOUTHWEST WISCONSIN

CITY           SKY/WX    TMP DP  RH WIND       PRES   REMARKS
LA CROSSE      CLOUDY    71  69  93 E6        29.93S
6HR MIN TEMP:  68; 6HR MAX TEMP:  72;

SPARTA         CLOUDY    62  62 100 CALM      29.96R
6HR MIN TEMP:  58; 6HR MAX TEMP:  61;

VIROQUA        CLOUDY    68  67  99 E7        29.98R
6HR MIN TEMP:  65; 6HR MAX TEMP:  71;

BOSCOBEL       CLOUDY    70  69  97 CALM      29.96R FOG
6HR MIN TEMP:  69; 6HR MAX TEMP:  71;

PRAIRIE DU CHI CLOUDY    70  67  92 SE3       29.96R
6HR MIN TEMP:  69; 6HR MAX TEMP:  70;

PLATTEVILLE    CLOUDY    71  71 100 E3        29.97R
6HR MIN TEMP:  71; 6HR MAX TEMP:  74;

$$

WIZ056-057-062-063-064-067-068-211300-
SOUTH CENTRAL WISCONSIN

CITY           SKY/WX    TMP DP  RH WIND       PRES   REMARKS
REEDSBURG      PTSUNNY   66  66 100 CALM      29.97R
6HR MIN TEMP:  63; 6HR MAX TEMP:  67;

BARABOO/DELLS  FOG       67  66  96 SE3       29.97S VSB<1/4
6HR MIN TEMP:  64; 6HR MAX TEMP:  67;

LONE ROCK      FOG       68  67  96 E3        29.96S VSB 1/4
6HR MIN TEMP:  67; 6HR MAX TEMP:  69;

MINERAL POINT  CLOUDY    73  72  94 E6        29.97S
MADISON        PTSUNNY   69  66  90 CALM      29.97F
6HR MIN TEMP:  65; 6HR MAX TEMP:  69; 6HR PCP: TRACE;

MIDDLETON      PTSUNNY   69  69 100 CALM      29.98S
6HR MIN TEMP:  64; 6HR MAX TEMP:  68;

WATERTOWN      MOSUNNY   67  67 100 CALM      29.98F
6HR MIN TEMP:  65; 6HR MAX TEMP:  68;

MONROE         CLOUDY    72  70  94 CALM      29.98R
JANESVILLE     PTSUNNY   73  73 100 NE6       29.96S
$$

WIZ051-052-058>065-066-070>072-211300-
SOUTHEAST WISCONSIN

CITY           SKY/WX    TMP DP  RH WIND       PRES   REMARKS
MILWAUKEE      PTSUNNY   75  70  84 CALM      29.98F
6HR MIN TEMP:  70; 6HR MAX TEMP:  76;

WAUKESHA       SUNNY     66  66 100 CALM      30.00F FOG
MILWAUKEE/TIMM CLOUDY    70  64  83 N3        29.99S
RACINE         CLOUDY    71  70  96 S3        30.01S FOG
6HR MIN TEMP:  66; 6HR MAX TEMP:  71;

KENOSHA        PTSUNNY   71  68  90 E5        29.99F
6HR MIN TEMP:  66; 6HR MAX TEMP:  71;

FOND DU LAC    CLOUDY    68  66  93 CALM      29.99F FOG
6HR MIN TEMP:  66; 6HR MAX TEMP:  71;

SHEBOYGAN      CLOUDY    67  67 100 CALM      29.99F
6HR MIN TEMP:  63; 6HR MAX TEMP:  67;

WEST BEND      CLOUDY    64  64 100 CALM      30.00F
JUNEAU         MOSUNNY   68  67  97 E3        30.00F
6HR MIN TEMP:  65; 6HR MAX TEMP:  68;

$$

LSZ147-162-211300-
LAKE SUPERIOR

STATION/POSITION TIME  TEMP    WIND        PRES    WAVE
                       AIR SEA DIR/SP/G            HT/PER
                 (UTC) (F)     (DEG/KT/KT) (MB)    (FT/S)
W MID LAKE BUOY  1150   55 47   10/  4/  4 1014.0R   0
DEVILS ISLAND    1200   62      30/  6/  6 1014.0R
SAXON HARBOR     1140   63     200/  2/  3 1012.9F
$$

LMZ867-665-643>646-211300-
LAKE MICHIGAN

STATION/POSITION TIME  TEMP    WIND        PRES    WAVE
                       AIR SEA DIR/SP/G            HT/PER
                 (UTC) (F)     (DEG/KT/KT) (MB)    (FT/S)
CHAMBERS ISLAND  1140   69      CALM  /  2 1014.6S
S GREEN BAY BUOY 1200   72 72  210/  4/  6 1015.0
N MID LAKE BUOY  1150   67 65  190/  8/ 10 1015.4R   1
NORTHPORT PIER   1140



USA.gov is the U.S. government's official web portal to all federal, state and local government web resources and services.